{"data":{"norad_id":58274,"epoch":"2026-05-24T19:15:11.406240Z","epoch_age_seconds":85368,"freshness":"FRESH","line1":"1 58274U 23174U   26144.80221535  .00033175  00000+0  47597-3 0  9999","line2":"2 58274  97.3842 236.3804 0006966 211.1523 148.9319 15.56047038142190","mean_motion":15.56047038,"eccentricity":0.0006966,"inclination_deg":97.3842,"raan_deg":236.3804,"arg_perigee_deg":211.1523,"mean_anomaly_deg":148.9319,"bstar":0.00047597,"rev_number":14219,"period_min":92.542189589001,"perigee_km":394.3896951503,"apogee_km":403.83175668205,"semimajor_km":6777.2477259162,"source":"CELESTRAK","updated_at":"2026-05-25T13:38:13.298097Z"}}